Wind_Speed
8 7 9 10 10 12 11 12 5 5 6 14 9 10 8 8 8 7 8 7 10 12 12 14 13 14 17 16 13 9 6 7 8 9 10 11 11 11 12 13 12 11 7 5 9 12 12 14 15 15 17 18 18 19 22 20 18 18 21 24 24 23 22 22 22 19 16 14 13 14 16 15 14 14 14 15 15 14 13 12 11 10 9 9 9 8
8 10 12 11 7 9 10 11 8 2 5 12 10 10 8 6 7 7 9 6 7 9 9 11 12 14 15 14 12 9 8 9 10 12 12 14 14 12 14 15 14 9 4 5 9 12 14 14 15 16 17 20 21 20 20 19 19 21 23 23 22 22 22 23 24 22 19 17 16 15 16 15 14 13 12 14 16 15 14 12 11 11 10 9 8 8
10 11 11 9 6 9 10 12 13 5 5 8 8 9 8 6 4 5 7 3 5 8 6 8 11 12 14 15 10 9 10 10 10 13 14 16 16 14 14 14 13 10 7 8 9 12 14 15 16 17 17 20 22 21 21 21 23 23 23 22 20 19 21 22 24 23 20 20 21 19 17 14 13 13 12 13 15 14 13 13 12 11 10 9 9 9
10 8 9 10 7 12 12 13 16 9 4 5 6 8 7 6 6 7 7 4 5 5 3 5 7 8 10 12 7 7 8 5 6 11 12 15 17 16 17 15 13 13 12 13 12 12 14 16 18 18 18 21 23 23 22 23 25 24 21 21 21 21 21 22 24 23 22 22 24 23 18 14 13 13 12 12 12 12 13 14 13 12 11 10 10 9
6 4 12 13 9 13 13 14 16 11 7 5 5 7 6 9 9 5 3 3 3 4 2 4 5 6 7 10 8 5 4 3 4 8 9 12 15 15 15 15 13 14 14 14 14 13 13 16 18 19 19 20 23 24 24 25 25 24 23 24 24 21 19 21 25 24 24 26 25 20 14 11 11 11 12 13 11 11 13 14 14 13 12 11 11 9
5 5 14 17 13 14 14 13 16 13 9 6 6 6 5 9 9 3 1 4 5 7 5 5 7 5 5 10 8 5 6 6 6 9 12 12 13 13 13 14 14 15 14 13 13 12 13 15 17 18 20 20 23 25 24 26 26 24 24 23 22 21 17 21 27 27 29 30 25 20 17 15 15 15 14 15 14 13 13 14 15 14 13 12 11 10
5 5 12 18 17 16 14 12 15 15 10 7 6 8 6 4 5 2 2 6 7 6 3 4 8 4 3 8 5 4 8 9 6 8 12 12 12 13 13 14 15 15 15 14 13 12 13 16 17 19 21 22 22 23 25 26 24 20 16 15 15 16 15 20 26 29 32 30 24 24 26 24 23 21 17 14 14 14 14 16 16 15 14 13 12 11
8 9 11 17 17 15 13 10 13 15 11 5 5 9 9 5 4 3 2 4 3 2 1 3 5 5 5 5 2 3 7 8 7 8 10 11 13 14 15 14 14 15 15 14 14 14 15 18 19 20 21 21 20 22 24 23 18 13 12 13 13 13 14 18 23 28 31 29 27 30 30 27 26 22 17 16 15 15 17 19 17 16 16 14 13 12
10 13 11 15 15 11 11 9 11 15 9 4 5 8 10 7 5 3 2 3 1 2 6 5 5 5 6 3 3 3 7 7 9 11 12 13 15 15 16 15 15 15 15 16 16 15 16 18 20 20 19 19 20 21 22 20 19 19 20 21 21 18 16 17 21 25 27 27 29 29 26 26 25 19 17 17 15 16 19 19 17 17 17 15 14 13
7 12 10 12 12 8 9 11 13 15 8 5 8 8 8 7 4 1 3 2 1 4 7 6 7 7 6 4 4 3 5 8 9 10 12 14 14 14 15 15 15 14 14 16 16 14 15 18 18 18 19 19 20 20 20 21 24 26 23 22 23 23 19 18 21 23 24 26 28 26 24 24 22 18 17 16 15 17 19 18 19 19 18 17 16 16
2 8 9 8 8 7 10 11 13 16 9 7 10 9 8 5 2 2 2 1 3 6 5 6 6 6 6 4 6 5 4 7 9 8 10 11 12 13 13 13 15 13 13 15 15 14 15 17 19 18 19 21 20 20 22 24 26 25 21 21 23 23 21 20 20 21 22 24 24 24 25 23 21 19 18 18 18 18 17 19 21 21 20 19 19 18
3 6 7 6 8 9 11 10 11 15 11 7 9 9 7 5 2 3 2 2 6 5 2 5 7 6 7 4 4 6 6 7 9 9 10 12 13 13 12 12 13 12 12 13 14 15 14 16 18 19 20 21 21 22 23 23 22 18 17 20 21 21 21 20 20 20 23 22 22 25 25 26 26 23 20 20 20 18 18 21 22 22 22 22 21 20
5 4 5 6 10 13 13 10 9 11 11 8 9 10 9 7 5 6 6 5 6 3 2 3 7 6 7 5 5 6 7 8 9 8 10 12 13 13 13 12 12 11 12 13 13 15 14 14 14 17 21 22 23 24 21 22 22 20 18 19 21 21 20 19 19 21 23 21 22 24 26 28 28 23 20 20 21 21 21 23 24 24 24 24 22 20
5 3 6 9 11 13 14 11 10 10 11 11 10 11 10 8 7 8 8 4 3 3 1 1 5 4 4 5 9 11 11 9 9 8 7 8 10 11 10 10 11 11 13 13 13 15 14 14 14 17 20 21 23 23 21 25 27 23 18 18 19 19 18 18 18 22 24 22 22 22 24 28 25 19 17 18 23 25 24 25 25 25 25 24 22 19
9 5 8 11 8 13 16 12 10 11 11 10 6 5 7 5 5 6 6 5 3 3 3 3 4 4 2 2 5 9 9 5 5 6 5 5 6 7 7 9 11 12 13 13 14 15 15 14 15 18 19 21 23 23 22 26 28 23 18 18 18 18 17 17 17 22 25 24 23 22 22 24 20 14 13 16 22 25 24 25 26 25 25 24 21 18
11 4 6 10 7 13 17 9 9 12 11 8 3 4 6 3 3 2 1 2 2 2 3 4 3 3 2 2 1 3 5 3 3 5 7 8 7 7 8 10 12 12 13 14 14 15 15 13 15 19 19 20 23 23 22 25 26 22 19 19 19 18 18 17 16 22 26 24 20 21 21 19 14 12 15 18 22 26 26 26 26 25 24 22 19 16
10 3 7 12 8 14 17 10 10 12 7 5 6 7 5 2 3 3 1 2 1 4 4 2 4 4 4 4 1 2 4 3 3 5 9 9 9 10 9 10 12 12 13 14 14 15 15 14 16 19 20 21 23 22 20 21 22 21 21 22 21 19 18 18 17 22 26 24 21 22 20 14 12 13 17 20 23 27 27 26 26 24 22 20 18 17
7 4 6 13 12 12 15 12 11 9 6 6 8 6 4 2 1 1 2 2 3 6 3 2 5 7 6 4 2 4 5 5 5 6 7 8 10 11 10 11 13 12 13 15 15 15 14 14 16 18 19 21 22 21 19 18 18 20 23 23 22 20 18 18 17 20 22 21 21 20 17 12 12 15 18 20 23 27 28 28 26 24 22 20 19 18
4 5 5 12 14 10 11 12 10 8 5 5 7 5 3 4 4 1 2 3 5 5 2 2 4 4 7 6 2 5 9 8 7 7 8 10 12 12 11 12 12 13 13 14 14 14 13 13 15 18 19 21 22 19 18 18 18 21 23 23 22 20 18 18 19 21 21 20 19 17 15 15 16 17 19 22 24 27 29 29 27 25 23 21 20 19
2 3 4 9 10 9 9 11 11 10 4 2 7 6 1 2 3 3 1 1 4 4 2 3 3 3 6 8 9 11 10 9 10 10 10 12 13 12 10 11 12 14 15 14 14 14 13 13 17 20 21 23 22 18 18 20 20 22 23 23 22 19 19 22 23 23 22 21 22 20 19 19 20 21 22 25 28 29 30 30 29 26 24 22 21 20
1 2 3 5 7 8 9 9 10 12 9 6 9 9 5 2 1 2 2 0 1 3 3 3 3 4 4 5 11 11 7 9 12 11 11 11 11 10 9 10 11 13 14 13 13 13 13 14 18 21 22 22 21 20 21 22 21 23 22 23 24 23 23 23 22 21 21 21 23 23 21 22 24 25 26 29 32 32 31 30 30 28 25 24 23 21
1 1 3 6 7 7 7 6 7 12 12 10 8 8 8 5 3 5 5 1 1 0 2 2 2 4 2 1 4 4 1 7 10 10 9 9 9 9 7 9 11 12 12 12 12 13 13 13 16 20 22 21 21 22 24 24 23 23 22 22 24 24 24 23 21 19 20 22 22 19 21 26 28 29 30 31 32 32 31 30 29 27 25 25 23 21
2 0 1 5 5 3 4 7 10 13 12 9 7 8 8 6 4 7 7 3 2 1 1 1 2 2 0 1 1 2 1 4 8 9 9 8 9 9 9 10 10 11 11 11 12 12 12 14 16 19 20 21 22 23 25 25 24 24 23 23 22 23 24 24 23 19 17 19 19 17 22 29 32 33 33 32 33 32 31 29 27 26 25 25 23 21
3 1 2 6 5 2 3 5 9 12 11 9 8 8 10 9 5 3 3 2 4 4 2 2 3 1 1 3 3 3 3 3 7 10 9 8 9 9 10 10 10 12 12 13 13 11 12 14 16 16 17 19 22 25 27 25 23 24 25 23 23 25 26 25 21 16 15 17 18 19 25 30 33 34 34 34 33 32 30 28 26 25 24 24 23 21
3 2 2 6 7 4 4 6 8 11 12 9 8 8 9 11 7 1 0 1 3 3 2 2 4 1 2 4 4 2 2 4 6 9 9 9 10 10 10 11 11 12 13 13 13 12 13 13 13 14 15 18 24 26 24 23 22 23 23 22 22 23 23 21 17 15 17 21 24 24 26 30 32 33 34 34 33 31 28 27 25 23 23 23 22 22
2 2 2 5 8 9 7 6 6 9 10 7 7 9 11 15 13 5 1 3 5 2 3 6 6 2 1 4 4 2 1 4 6 8 9 9 10 10 10 11 11 12 14 14 14 14 14 12 11 14 17 20 24 23 21 22 21 20 20 20 21 21 19 17 17 19 23 26 28 28 27 30 31 32 32 33 32 30 28 26 24 23 23 22 22 22
1 2 2 3 6 7 6 5 6 8 9 8 9 12 12 14 15 8 2 4 5 4 4 9 5 5 5 2 2 2 2 4 5 8 9 9 10 11 11 12 12 12 13 13 13 13 14 13 13 14 17 21 22 20 20 22 19 17 18 20 22 23 22 22 23 25 27 29 30 30 29 30 31 31 31 31 30 28 27 25 24 23 22 21 21 21
1 3 2 4 5 4 2 7 12 13 12 11 12 13 12 11 11 9 6 4 4 5 6 5 2 4 7 2 1 5 4 4 6 8 9 9 10 11 11 12 12 12 12 12 13 14 15 15 15 14 16 19 20 19 20 21 19 19 21 23 25 27 27 28 28 28 31 32 29 27 29 31 32 31 31 30 28 27 25 24 23 22 22 21 21 21
2 4 2 3 5 6 4 6 13 17 14 13 15 14 12 11 10 11 11 6 4 5 4 2 2 5 5 2 3 6 5 5 6 7 8 9 11 12 13 13 13 13 14 13 13 15 15 16 15 13 14 18 20 19 19 20 24 25 24 25 28 30 30 31 30 30 33 32 25 24 29 32 32 32 30 29 27 25 24 23 22 22 21 21 21 22
3 4 3 3 5 4 5 7 10 15 14 13 15 15 13 12 12 12 11 6 4 6 3 3 2 6 5 2 3 5 5 5 5 6 8 10 12 13 14 15 13 14 16 14 13 14 15 16 15 13 15 18 20 20 18 20 25 28 25 24 27 31 33 31 28 30 31 26 22 26 32 33 32 32 30 28 27 25 24 23 22 22 21 20 21 23
3 3 2 2 3 1 4 7 9 12 15 14 14 13 12 11 11 10 6 3 4 7 2 2 4 5 2 2 3 3 5 6 7 8 9 10 11 12 14 14 13 13 15 14 13 14 14 15 15 13 15 17 20 21 19 20 23 25 26 26 28 31 30 27 28 29 25 21 24 31 35 34 32 31 29 28 27 26 24 23 22 21 21 22 23 25
3 2 1 0 2 1 2 7 9 10 12 11 9 11 12 11 9 6 3 4 7 7 2 1 5 3 1 3 4 5 7 8 9 9 9 9 10 12 12 14 13 12 13 13 13 13 13 13 14 14 15 18 20 21 20 22 24 24 27 28 27 28 28 27 31 30 24 22 25 30 35 36 34 32 30 28 27 26 24 22 21 21 23 24 26 27
1 2 3 2 1 1 1 6 10 9 8 6 5 8 12 10 7 5 3 5 7 5 3 4 5 2 2 5 5 6 8 10 9 9 9 9 10 11 10 11 11 10 11 12 12 13 12 11 13 15 17 18 19 21 24 28 26 23 25 26 24 27 30 32 35 33 28 24 22 24 31 34 33 33 31 29 28 26 24 22 22 23 25 27 28 28
0 2 3 2 1 1 4 8 10 8 6 3 1 3 7 6 7 8 5 5 7 4 1 2 2 2 2 5 5 7 9 9 9 10 10 10 11 11 11 11 11 10 9 10 12 13 11 11 14 17 19 20 22 25 29 30 27 23 25 28 28 28 32 34 33 28 25 22 20 24 31 33 33 32 31 30 29 26 24 23 23 25 27 28 28 28
1 2 2 1 0 1 5 9 9 6 2 2 2 1 1 1 4 6 3 1 4 3 1 2 1 2 4 3 3 6 6 5 7 9 11 11 11 12 13 13 13 13 12 12 13 14 13 15 17 17 19 23 27 30 29 28 28 27 29 32 31 28 29 30 28 24 23 22 21 25 30 33 33 32 31 30 29 27 26 25 25 27 28 28 29 29
2 1 1 1 0 2 5 6 6 3 1 2 1 2 1 0 2 4 3 3 1 2 2 1 2 3 3 3 3 5 5 4 4 4 8 12 12 12 13 13 14 16 16 14 14 15 15 16 18 18 21 25 28 30 29 29 31 31 30 30 28 28 31 29 25 24 23 22 23 26 30 33 33 32 32 31 29 28 27 27 27 28 28 29 29 29
4 2 2 1 0 2 4 5 3 2 1 2 2 2 0 0 0 2 2 2 1 2 3 3 5 5 4 4 5 6 6 5 3 4 8 11 11 11 12 13 14 16 15 14 15 15 16 17 18 21 25 28 30 31 31 31 34 35 32 29 25 27 32 29 24 23 22 21 25 30 32 33 33 33 33 32 30 29 28 27 27 28 29 30 31 30
5 3 2 1 0 1 4 6 4 2 3 2 1 0 1 2 2 1 2 2 0 1 3 5 7 7 6 7 8 8 8 6 5 7 9 11 9 8 9 11 12 13 14 15 16 17 17 18 21 25 28 29 29 31 32 34 37 35 31 28 25 24 26 24 21 22 22 23 27 31 32 32 32 33 34 33 31 30 28 28 28 28 30 32 31 30
3 2 1 0 1 1 4 5 3 2 2 0 2 2 2 2 3 3 4 2 1 0 3 6 7 8 8 8 9 9 7 5 4 5 9 13 12 9 8 10 11 13 16 18 19 18 18 20 24 26 28 28 27 29 34 38 38 33 27 24 23 22 23 24 22 21 22 26 31 33 33 32 32 34 35 33 31 31 29 29 29 29 31 32 32 30
2 1 1 2 2 2 3 4 2 1 1 1 3 4 3 1 4 5 5 3 1 0 3 6 7 9 9 9 9 9 6 2 2 1 8 14 13 10 10 10 11 13 16 17 18 19 21 23 24 23 24 28 28 29 34 37 35 30 26 25 26 26 26 26 23 21 22 28 33 33 32 33 34 35 35 33 32 31 30 30 29 30 32 32 32 31
2 1 1 1 2 2 3 4 3 1 1 2 5 5 3 2 4 5 3 1 3 3 2 6 8 9 9 9 9 7 4 3 6 3 8 13 12 11 11 11 13 16 17 17 19 21 22 24 26 26 26 29 29 28 32 33 29 26 28 30 31 28 25 23 22 23 25 30 33 33 33 33 34 35 34 33 32 31 30 29 29 31 33 33 32 31
2 2 2 2 2 1 2 3 3 2 1 3 6 5 2 2 3 2 1 1 3 5 1 4 7 8 9 9 8 4 2 5 7 5 10 13 12 12 12 12 14 15 16 18 20 21 21 21 24 27 27 28 29 30 32 30 26 26 29 29 29 27 23 21 23 25 29 33 34 33 33 34 34 34 33 33 32 31 30 29 29 31 33 33 32 32
3 2 2 1 0 0 2 3 3 3 2 4 6 2 0 1 1 1 2 1 1 4 3 2 5 7 8 8 5 2 2 2 1 5 10 11 11 11 11 12 13 13 15 17 17 19 22 21 21 23 25 26 27 28 30 30 28 28 28 26 26 27 24 22 24 28 32 34 34 34 34 34 34 35 34 32 31 30 29 29 30 32 33 33 33 32
2 2 1 1 0 1 2 3 3 2 2 4 4 2 2 3 1 1 2 2 2 2 2 2 2 6 9 8 6 2 1 3 3 5 7 8 9 10 10 11 12 13 15 16 16 19 21 20 20 21 24 27 29 28 30 33 31 28 27 27 27 25 23 25 30 33 35 35 34 34 34 33 34 34 33 31 30 29 29 29 30 31 33 33 32 30
2 1 0 1 1 1 2 2 1 1 3 3 1 1 1 3 2 1 2 2 2 2 2 2 1 3 7 8 7 2 3 4 4 4 4 5 7 8 9 10 12 13 15 16 17 19 20 20 21 21 21 26 31 32 32 35 35 30 27 27 27 27 28 33 35 34 34 35 35 34 34 34 34 33 32 31 29 28 29 30 30 30 31 31 30 27
1 1 1 1 0 1 1 2 2 2 3 3 1 1 3 1 0 1 3 1 2 2 3 4 3 1 3 6 7 3 3 4 5 5 5 5 6 7 8 9 11 14 15 15 15 16 17 18 20 21 20 23 28 29 29 33 37 34 29 27 29 32 34 35 34 32 33 34 34 34 35 34 33 33 32 30 27 27 29 30 30 29 28 27 26 25
1 0 1 1 1 1 2 3 4 4 4 6 5 3 2 2 2 1 1 1 2 2 3 5 5 2 0 5 7 5 5 5 6 7 7 6 7 8 9 9 11 13 14 15 16 16 16 16 16 17 19 21 23 24 26 29 32 32 32 32 34 36 36 33 31 30 31 31 32 33 34 34 34 33 31 29 27 27 28 29 30 29 26 23 23 22
2 2 2 1 2 1 2 2 4 3 3 4 4 4 5 7 7 6 4 3 2 1 2 3 3 2 2 4 6 6 7 6 7 8 8 7 7 7 9 11 12 12 13 16 18 18 17 17 16 17 18 19 21 23 26 27 28 30 34 37 39 39 37 34 31 30 29 29 30 31 33 34 33 31 30 29 28 27 26 27 29 29 27 25 26 26
2 3 3 1 1 2 2 2 4 2 2 4 5 5 6 7 8 8 7 5 5 5 5 6 6 4 3 4 6 8 8 8 8 9 9 8 8 8 8 10 12 12 13 15 18 20 20 18 18 18 18 18 21 25 26 26 28 32 36 38 39 40 39 36 32 29 28 29 30 31 33 34 33 31 30 29 27 27 27 28 29 29 28 29 31 30
1 2 2 1 2 3 2 3 3 1 1 3 6 8 8 7 6 7 7 7 8 8 7 7 8 7 6 4 4 6 8 8 8 8 8 8 9 10 11 11 11 11 12 13 14 16 18 20 21 21 19 18 22 26 26 26 28 33 36 38 39 40 39 37 31 27 27 29 30 32 33 31 31 32 32 29 27 26 26 27 28 29 29 29 28 28
2 1 1 1 3 3 1 2 1 1 0 2 4 6 7 6 5 6 7 7 7 7 7 6 7 8 7 6 4 5 7 7 7 6 6 6 8 12 14 15 14 12 13 14 14 13 13 15 17 18 17 18 22 25 25 27 30 33 35 38 39 39 38 36 33 28 25 26 30 33 31 28 28 31 31 29 28 26 23 22 23 25 26 26 25 24
Wind_Direction
173 185 201 203 201 187 182 188 176 27 154 163 163 180 177 182 190 198 213 207 193 206 218 216 220 224 232 238 230 213 174 178 185 182 196 202 206 213 213 220 224 221 213 172 177 172 169 179 173 168 174 175 176 182 189 186 174 181 191 194 196 197 196 191 187 186 185 186 185 192 200 201 207 217 223 223 216 211 213 217 221 219 213 213 218 224
181 206 212 199 181 168 167 181 183 51 153 167 171 182 185 193 189 190 211 216 195 215 221 212 223 227 232 238 224 203 192 195 186 180 191 199 206 214 215 218 222 219 166 146 172 167 167 171 166 167 174 178 180 181 184 179 175 184 190 195 196 193 192 190 186 182 183 192 194 198 207 206 208 220 223 222 218 215 214 212 208 202 199 204 211 216
198 219 201 165 141 157 159 176 192 191 159 173 178 181 191 191 178 193 215 225 186 211 227 202 219 231 232 239 223 192 203 207 191 187 187 193 202 212 218 219 218 214 196 195 190 171 171 169 166 172 176 184 185 180 181 178 178 184 190 196 197 191 189 187 185 184 186 193 194 196 206 207 210 219 220 218 215 208 202 195 190 190 190 196 204 209
202 212 166 146 149 162 160 172 188 199 196 193 181 182 189 168 173 204 202 189 181 210 249 185 211 235 233 242 230 193 213 219 189 196 193 192 197 205 213 216 213 211 209 210 201 179 172 169 172 179 180 185 185 180 179 177 179 186 192 197 197 194 189 184 185 187 187 190 190 190 196 203 211 216 208 202 199 189 184 182 181 183 184 188 194 194
195 151 150 160 169 167 165 172 183 195 203 208 206 191 170 163 187 218 190 167 187 220 215 166 218 239 225 238 232 184 210 230 179 192 201 202 203 206 211 213 213 214 211 211 206 188 173 174 181 183 181 182 184 184 179 177 183 188 194 198 197 195 188 184 187 187 185 188 188 183 177 183 193 194 188 183 178 175 178 178 177 178 177 180 181 178
195 142 161 171 177 174 171 177 185 189 192 204 224 216 173 163 180 213 192 183 212 219 194 189 234 230 199 229 222 156 185 206 177 184 197 202 207 211 213 214 216 220 218 217 211 193 180 182 185 184 182 182 186 189 183 183 190 193 195 197 195 193 187 187 191 189 186 186 182 169 161 169 173 174 184 185 178 176 177 176 175 173 171 173 172 168
193 167 174 177 178 178 178 185 186 184 190 194 198 210 204 163 163 168 187 195 215 228 179 196 236 234 196 221 207 151 191 193 173 190 196 198 206 209 211 212 213 217 218 217 208 193 186 189 188 186 186 184 186 188 185 189 195 193 192 193 195 195 189 190 193 191 188 183 176 174 176 183 185 183 188 190 181 177 175 174 174 169 166 168 167 164
185 175 182 183 179 181 188 188 179 184 195 180 160 192 202 210 207 187 192 208 230 276 220 191 224 243 236 217 135 144 196 186 180 201 200 200 206 208 212 213 212 215 214 212 207 194 192 197 195 190 187 187 187 186 186 187 186 185 196 201 206 210 199 192 192 191 190 183 177 183 186 187 191 190 186 183 177 173 172 172 171 167 164 164 164 161
178 183 181 182 184 189 189 169 164 182 192 156 153 189 198 211 216 191 222 228 18 283 228 183 169 226 237 203 104 148 193 193 192 202 204 205 207 208 212 213 213 216 213 213 210 199 197 201 199 192 186 186 187 186 183 177 178 193 206 205 206 213 210 199 191 190 191 183 180 188 191 188 190 189 181 175 170 168 169 168 166 164 161 159 158 155
178 193 180 179 191 188 168 153 160 181 187 149 168 193 202 209 208 204 253 246 331 264 230 178 167 219 239 197 172 173 195 201 197 202 206 205 207 208 209 210 212 213 212 213 210 201 198 197 196 191 185 186 187 184 176 175 187 197 202 201 202 209 212 203 194 190 185 176 176 186 192 188 184 180 175 167 162 164 164 163 162 159 155 151 149 148
164 185 178 183 193 169 158 159 165 179 178 145 168 190 203 208 202 225 265 306 264 253 225 188 181 223 246 204 187 195 192 189 190 202 209 205 210 213 210 207 208 208 208 211 208 200 195 191 190 188 186 189 186 179 176 182 190 192 195 201 202 208 213 205 197 186 170 165 174 186 191 194 189 178 169 163 160 159 156 159 158 154 151 147 146 147
222 179 175 174 175 167 166 168 169 177 173 151 165 178 187 197 211 228 221 216 238 239 196 192 186 210 236 219 193 207 202 192 190 193 198 202 210 214 212 206 205 204 201 205 206 199 192 190 188 186 188 188 181 177 177 179 185 187 195 202 200 206 211 204 192 176 164 170 187 189 185 192 195 182 169 163 159 152 153 159 156 151 148 146 145 145
221 187 175 165 172 180 176 169 172 179 180 177 172 168 175 184 192 216 209 204 225 222 60 179 183 208 241 241 243 237 226 217 209 202 196 195 202 207 207 202 196 194 195 199 203 199 195 193 190 186 187 183 176 177 171 170 184 198 202 200 200 204 205 198 185 170 165 175 189 188 184 191 194 181 167 162 158 158 164 165 158 153 149 144 144 144
191 176 190 182 176 187 185 175 176 181 186 190 182 176 180 176 181 205 206 207 218 189 94 102 178 217 252 232 230 232 234 224 211 217 209 194 201 204 199 193 186 187 193 197 198 197 196 193 191 187 184 178 175 174 165 170 189 202 201 197 197 199 199 193 180 167 169 178 183 187 193 195 190 175 163 163 165 168 169 165 161 157 152 147 145 143
182 176 188 190 178 181 191 191 177 171 182 192 188 185 189 179 186 199 198 196 179 150 144 134 176 206 201 194 215 226 241 239 207 214 212 206 209 196 182 182 185 188 193 197 196 196 195 191 191 187 180 177 176 172 166 173 188 197 195 192 191 192 191 185 172 164 173 184 181 182 195 197 185 166 159 164 168 170 169 166 163 160 154 148 144 140
193 192 168 185 186 179 189 192 168 166 179 188 175 196 203 187 167 160 167 182 137 130 174 179 213 228 229 285 309 237 250 249 219 206 196 201 192 174 179 185 188 190 192 195 194 193 192 185 187 184 178 176 175 172 168 174 185 190 187 187 187 186 182 178 165 156 167 182 180 181 194 195 174 152 160 170 171 171 171 168 162 159 153 146 141 138
196 188 157 178 194 192 188 178 176 181 173 164 184 196 188 113 112 134 99 59 110 212 195 164 224 243 263 271 200 171 214 201 197 192 188 191 176 173 187 188 188 190 190 193 191 189 187 181 180 180 177 176 173 171 170 173 181 183 180 181 181 179 176 175 163 149 159 175 180 183 191 184 160 158 174 182 174 168 168 165 159 155 151 145 141 138
185 163 165 181 187 194 186 175 189 197 160 159 190 182 126 72 5 151 159 130 175 211 206 150 215 224 231 242 135 159 202 198 191 189 181 178 175 183 193 191 189 186 184 188 188 186 183 178 177 175 174 171 169 169 171 172 176 176 176 178 175 171 168 170 162 150 159 176 182 184 184 173 166 174 183 183 173 166 164 160 157 154 149 145 142 136
199 159 162 190 186 178 177 178 192 203 191 186 183 157 139 195 206 183 166 166 175 196 214 188 213 224 215 221 221 200 204 199 190 187 183 183 186 192 195 190 185 180 181 184 184 183 180 175 172 170 167 165 164 166 168 170 171 171 174 175 169 162 161 163 160 156 167 186 192 186 174 167 172 179 181 178 173 166 161 158 157 154 149 145 141 136
238 169 156 197 186 158 170 189 191 190 193 193 173 168 221 227 190 183 175 171 177 182 206 198 194 224 216 218 232 227 206 184 179 186 195 196 195 195 190 185 182 181 184 183 180 179 176 171 168 164 163 162 162 162 163 165 164 166 170 170 165 159 158 161 161 163 172 185 192 186 173 168 173 179 177 171 168 164 161 160 157 152 148 145 141 138
278 222 149 163 165 160 182 201 194 182 175 182 185 184 190 187 157 195 189 45 190 179 192 206 214 225 215 207 224 231 207 177 182 189 198 200 198 197 188 182 182 184 183 180 179 176 170 164 161 160 159 158 158 158 161 161 159 162 165 164 162 160 160 160 160 167 172 177 184 180 165 159 165 173 170 164 163 162 161 159 153 148 147 144 142 141
202 242 149 152 170 180 180 181 183 180 178 183 190 187 189 188 166 184 189 183 283 247 178 203 256 250 234 187 224 239 195 183 188 186 191 195 194 191 186 184 184 182 177 175 175 169 163 157 155 156 156 155 156 157 159 160 158 160 160 158 158 159 160 161 161 170 174 173 174 166 151 150 158 166 166 160 158 158 157 156 150 146 145 143 143 144
177 291 142 145 164 168 147 164 180 180 175 178 191 189 190 201 198 192 193 171 173 217 85 176 282 282 68 27 285 276 284 199 188 184 185 184 184 184 181 181 178 174 170 168 166 158 154 152 149 151 153 154 158 159 159 159 157 159 160 157 156 156 158 163 168 174 172 164 159 147 142 148 152 159 162 158 155 155 156 155 149 146 145 144 144 144
180 219 131 117 135 124 93 138 168 173 173 183 198 192 189 199 208 206 208 169 184 199 170 205 252 248 63 1 311 281 271 217 186 185 180 169 174 178 174 171 169 168 167 164 160 151 148 150 147 148 152 154 159 161 159 156 155 158 161 160 158 158 161 166 171 170 156 144 140 134 138 145 151 156 158 156 154 155 156 153 148 147 147 144 145 144
185 230 160 128 146 151 114 132 165 182 188 194 191 183 188 192 188 192 225 186 211 207 184 240 258 223 51 2 343 303 240 205 183 182 177 165 168 171 168 170 167 165 166 163 158 150 148 149 146 151 155 157 160 161 156 153 155 158 159 157 155 155 159 164 163 154 142 136 137 140 145 150 154 157 156 154 153 154 154 150 147 149 148 146 146 143
172 225 169 145 162 170 172 173 171 177 184 185 169 168 185 192 190 187 141 196 212 183 178 230 252 266 39 26 4 344 185 182 176 175 176 167 166 168 167 171 168 166 170 166 157 151 149 147 147 155 161 160 158 155 149 150 153 152 150 150 150 149 150 153 151 142 136 136 143 153 155 153 154 156 155 153 152 152 151 150 148 149 148 147 146 142
164 236 214 204 194 181 168 132 104 129 159 168 163 167 181 195 196 186 159 203 193 137 195 228 248 293 302 15 18 297 215 185 179 171 173 171 166 169 170 170 168 167 168 161 152 148 147 148 152 157 158 155 151 147 147 149 146 139 139 140 145 150 151 150 148 142 138 144 154 158 155 152 153 154 153 152 151 151 150 149 149 149 148 147 145 144
285 279 219 216 233 229 173 129 133 149 165 169 167 170 179 191 193 190 198 207 147 148 221 235 165 260 284 334 183 238 226 195 188 174 173 172 167 170 169 166 166 165 158 150 147 148 147 149 152 151 149 147 145 145 145 143 137 135 138 141 147 156 158 154 149 144 147 154 157 153 149 151 153 153 153 152 151 150 149 149 149 148 148 148 148 148
263 280 232 217 245 235 212 171 159 160 167 172 174 177 180 180 180 193 207 205 171 197 249 333 136 221 269 326 196 215 209 193 188 174 171 169 166 168 166 165 167 163 154 149 150 150 147 148 148 144 142 144 143 143 141 137 137 139 142 146 153 160 162 156 147 144 150 154 150 145 147 150 152 153 153 152 150 149 149 149 150 149 149 151 152 150
247 266 224 229 257 226 194 200 177 160 161 173 180 181 179 176 177 195 206 196 215 252 302 25 262 252 264 260 198 199 197 184 173 168 170 169 167 168 168 169 169 159 154 152 151 149 147 147 146 143 144 146 144 143 139 137 141 143 145 150 157 160 159 152 143 142 148 148 143 146 149 150 152 153 152 151 150 150 150 150 150 150 151 152 151 148
215 239 171 191 243 181 153 187 183 166 164 171 181 181 175 175 180 194 200 165 227 258 292 25 286 278 256 211 180 177 188 178 167 170 173 169 167 168 171 173 168 156 153 152 150 150 147 144 144 147 149 149 146 143 139 138 143 146 150 156 160 159 155 147 140 141 143 143 145 150 152 152 153 153 151 150 150 150 150 150 150 151 151 150 149 148
213 247 348 225 212 109 127 170 170 163 160 164 182 184 173 176 186 187 173 171 207 227 211 273 277 275 151 155 159 168 181 177 173 174 172 168 166 171 176 176 169 157 152 150 148 149 146 144 147 152 151 148 145 141 138 138 142 148 155 158 157 152 148 144 143 144 145 147 150 152 154 154 153 152 151 151 151 150 150 149 150 151 150 149 150 150
232 276 308 311 222 45 95 150 146 140 145 157 197 189 172 174 184 174 170 201 205 199 188 223 260 308 126 154 156 166 178 178 176 175 170 162 163 171 176 173 167 158 149 145 146 148 147 146 150 152 150 145 139 138 142 144 145 150 155 153 146 145 147 148 150 150 149 149 147 147 152 154 151 150 150 151 150 149 149 150 150 151 151 151 153 152
23 303 308 313 212 115 111 129 136 145 158 159 282 188 171 173 182 177 182 208 200 191 241 258 296 335 197 183 173 176 183 183 180 176 169 161 164 170 168 161 158 153 147 146 148 150 149 150 152 149 144 141 140 144 150 151 148 147 149 147 144 146 148 148 149 147 144 142 140 143 150 152 150 149 149 150 149 148 149 151 151 152 154 153 153 152
282 297 306 310 128 117 124 135 145 156 156 15 9 149 175 218 186 170 130 112 185 196 325 338 292 226 214 214 197 182 177 174 173 174 174 173 173 173 168 163 159 157 157 157 157 158 158 156 154 147 139 141 145 149 150 149 146 144 145 146 146 146 147 144 143 144 144 143 145 149 153 153 151 150 149 148 149 150 152 153 153 154 155 154 153 153
257 282 274 274 98 126 139 141 145 144 62 12 62 118 122 44 173 163 113 67 116 205 240 225 178 191 207 211 183 166 148 130 137 169 184 182 180 178 175 172 170 169 169 168 165 163 160 156 151 143 138 141 146 148 147 147 146 144 143 146 145 145 148 145 142 146 149 147 149 154 154 153 152 151 150 150 152 154 155 155 156 156 156 156 155 155
214 211 210 240 156 127 125 112 111 129 93 54 65 86 131 225 226 187 155 92 71 228 224 187 164 174 194 181 154 140 129 126 147 208 200 187 180 180 179 176 176 179 177 170 162 156 151 147 142 140 141 144 146 148 148 149 148 146 144 147 148 148 150 149 146 149 151 149 152 156 157 156 155 153 153 154 155 157 158 158 158 160 160 158 156 156
201 218 234 240 324 107 117 111 112 117 90 57 345 10 270 262 270 231 162 124 90 245 213 188 170 164 174 168 146 134 133 148 197 219 203 187 174 171 176 175 174 176 175 168 158 150 145 141 140 143 146 146 147 150 150 150 151 147 144 149 151 148 147 147 149 152 152 150 154 157 160 161 160 158 157 158 158 160 161 161 161 162 163 161 158 158
153 178 210 158 79 121 126 115 114 110 92 359 286 329 323 250 202 186 177 154 90 183 195 197 178 160 168 174 158 151 156 173 212 218 192 186 181 171 169 172 171 170 171 168 161 152 143 139 141 144 145 144 148 152 153 153 152 147 143 147 148 146 149 155 157 155 153 154 158 162 164 165 164 162 160 160 162 163 163 162 163 165 164 163 161 159
94 112 150 119 86 104 109 91 87 101 85 303 292 321 326 218 170 182 185 158 33 18 177 194 186 166 172 183 176 181 195 207 312 254 175 178 182 175 168 170 169 167 165 161 154 143 136 137 139 139 141 147 151 154 154 154 151 144 143 146 149 154 161 163 159 154 154 158 163 165 167 167 167 166 164 163 163 165 165 164 165 166 165 163 162 160
9 2 59 80 72 80 91 93 99 90 34 325 304 315 318 225 184 185 172 93 341 320 167 186 197 181 178 188 190 197 218 299 315 279 171 166 171 169 167 166 165 165 160 150 140 133 131 137 141 144 149 153 153 153 154 153 147 143 146 151 156 163 165 160 155 153 156 160 164 166 166 168 168 168 167 165 164 164 165 166 167 167 165 163 162 162
353 4 45 42 39 54 79 95 103 106 71 324 306 299 276 198 164 144 24 342 305 316 326 190 200 195 190 191 192 205 291 317 298 236 169 164 167 166 165 162 162 163 155 143 138 135 133 136 143 148 153 155 153 153 154 150 145 146 151 155 161 163 159 153 153 155 158 161 163 164 165 166 166 166 166 164 163 164 165 166 167 167 166 163 163 163
330 351 70 66 344 358 69 82 90 100 74 340 322 313 60 47 77 38 331 317 284 315 316 237 205 205 201 190 184 224 334 349 255 172 160 163 164 159 160 161 157 152 145 139 139 138 135 138 145 148 152 154 153 153 153 150 147 150 153 157 163 161 154 152 155 156 159 161 162 163 164 164 165 166 165 164 164 164 164 165 165 166 167 165 163 163
330 348 68 67 325 359 60 73 68 50 351 330 338 32 52 14 357 286 311 337 349 328 303 277 225 211 209 199 188 200 35 75 119 145 148 155 155 151 156 158 149 144 143 141 139 141 140 141 145 147 151 156 156 156 157 154 150 152 158 161 162 158 152 155 159 158 159 161 161 162 164 164 166 167 167 166 166 164 164 164 165 166 167 166 164 163
11 337 343 51 28 354 61 78 68 311 298 302 346 60 337 334 335 277 263 288 324 337 312 300 283 210 215 210 197 182 43 63 95 116 120 131 141 144 148 147 142 143 146 141 141 147 146 143 145 146 148 156 159 159 160 158 155 157 162 162 159 157 157 159 159 158 159 161 162 163 163 164 167 169 168 168 168 165 164 165 165 165 166 167 166 165
22 277 277 57 63 210 75 46 356 333 331 331 331 218 227 222 60 250 237 255 331 333 314 309 313 293 224 207 195 170 63 77 101 105 105 112 125 132 135 137 139 142 144 140 143 149 145 140 144 146 147 156 161 161 162 163 161 161 163 161 160 161 161 159 157 157 159 162 163 163 164 164 166 168 169 169 169 168 167 167 166 165 165 166 167 167
9 23 49 34 340 6 68 21 346 346 346 339 341 340 333 8 8 313 251 328 342 338 332 322 314 324 155 185 186 160 107 109 117 113 112 120 128 132 134 136 139 141 143 145 149 149 141 135 140 144 147 155 162 163 164 165 163 161 162 162 163 164 162 159 157 157 159 161 162 163 164 165 165 166 167 168 168 168 168 169 169 168 166 165 165 165
336 354 9 16 7 34 95 11 336 321 308 323 344 360 355 350 346 344 349 350 339 357 18 353 338 2 88 143 153 129 112 122 127 119 115 117 123 132 139 143 144 141 142 147 150 148 145 142 144 148 151 156 160 163 164 164 164 164 164 164 165 166 164 161 161 159 158 159 160 162 165 166 165 164 164 166 167 167 167 169 171 171 170 171 171 169
297 332 332 333 56 94 105 20 353 340 353 5 9 9 2 350 338 337 346 358 8 16 24 29 31 38 70 117 130 124 125 135 137 132 132 131 130 131 136 140 139 134 135 145 151 152 152 151 152 154 158 160 161 162 163 165 168 168 166 166 168 168 165 163 162 158 157 159 161 163 165 166 165 164 164 165 166 168 170 173 175 175 176 179 180 179
331 358 303 242 103 102 82 13 360 14 45 13 358 356 357 348 336 343 357 6 11 10 12 29 45 50 56 72 110 132 137 145 151 148 144 143 142 138 134 132 128 124 129 139 148 153 157 160 163 163 162 161 162 162 165 169 171 170 168 169 170 170 167 164 159 156 157 160 163 165 166 164 164 166 167 166 165 166 169 174 178 180 181 182 184 186
9 357 296 40 86 101 70 353 340 243 330 347 340 348 354 348 352 14 17 9 5 8 12 31 55 66 64 60 80 126 137 144 145 128 108 118 140 145 143 139 134 131 134 139 142 147 155 162 165 163 157 158 163 165 167 170 171 171 172 172 172 172 168 164 160 158 158 161 164 167 166 164 164 166 166 166 167 165 163 166 174 180 182 184 185 188
Height
760 763 762 756 753 752 755 755 754 755 752 754 759 758 758 759 759 758 753 748 748 753 753 749 751 751 747 744 743 746 749 753 754 756 757 756 755 755 754 753 752 752 753 755 759 762 766 769 771 774 777 780 782 783 785 788 789 791 792 792 794 797 801 803 805 807 810 812 813 815 816 818 819 822 825 827 828 828 829 830 830 831 832 834 835 835
759 758 752 749 750 751 755 757 756 758 755 754 756 757 758 757 755 754 752 748 748 752 750 747 752 750 745 742 741 743 748 750 751 753 755 753 753 752 751 751 750 751 754 756 759 762 765 768 770 773 776 778 779 781 784 786 787 789 789 790 792 795 798 800 801 803 806 809 811 814 817 818 819 822 825 827 827 827 827 828 829 830 831 833 834 835
759 752 746 747 750 751 756 758 758 760 758 755 754 755 758 755 753 753 750 748 749 752 749 749 753 749 743 739 739 742 744 744 744 746 748 749 750 751 750 749 749 751 754 756 758 761 763 766 769 771 774 776 777 780 782 784 785 786 787 787 790 792 795 798 799 800 802 805 808 811 815 817 819 822 825 827 827 827 827 827 828 829 830 831 833 833
753 747 744 748 750 752 757 758 758 760 759 757 754 754 756 755 756 754 749 748 748 748 748 750 752 747 741 739 739 742 742 741 744 744 742 743 744 746 745 745 748 751 753 754 756 759 761 764 767 768 771 773 776 778 780 781 782 783 783 784 786 789 792 795 796 797 799 802 805 808 812 815 818 822 825 826 827 827 827 827 827 828 829 830 831 832
745 743 743 748 750 751 755 757 757 759 759 759 756 752 752 755 755 750 747 748 749 749 747 749 754 748 742 741 739 742 745 744 745 746 745 743 741 741 743 744 747 748 749 751 754 757 759 761 763 765 768 771 773 775 776 776 778 778 779 780 782 785 789 791 793 795 796 800 804 806 810 815 819 823 825 826 826 826 826 826 827 827 828 829 830 831
742 742 741 746 749 749 753 755 754 754 756 759 758 752 750 750 752 751 750 750 753 753 746 748 758 752 741 738 736 740 746 745 746 747 745 744 742 742 744 745 746 747 747 749 753 756 757 759 762 764 766 769 771 772 772 773 774 775 776 778 781 783 786 788 790 792 793 796 801 805 809 814 817 821 824 824 824 825 825 825 826 827 827 828 829 830
741 742 741 743 746 748 751 751 750 750 754 758 754 751 752 751 752 754 751 750 754 753 746 747 754 753 743 735 735 742 743 742 747 748 744 742 742 741 742 743 744 746 747 748 751 754 755 757 759 761 763 765 767 769 770 771 773 775 779 783 786 786 786 787 788 790 791 795 800 803 805 809 813 816 820 821 822 822 823 824 825 826 826 827 828 829
739 743 744 742 744 747 748 749 748 747 751 754 748 749 754 754 754 754 751 750 751 749 748 747 748 752 747 736 741 748 743 743 749 749 744 742 741 740 740 740 742 743 744 746 749 751 752 753 755 758 761 763 765 766 768 771 775 778 782 787 791 792 790 788 788 789 792 795 799 801 804 807 810 814 816 818 820 821 822 823 824 825 826 826 827 828
736 741 743 742 743 745 743 744 746 747 750 750 746 748 751 751 753 752 751 751 752 753 751 747 747 754 748 736 742 748 743 744 746 744 743 740 738 738 738 738 739 740 741 743 745 748 749 750 753 757 760 762 764 765 768 772 775 777 780 783 787 791 791 789 788 790 793 797 800 804 808 808 810 813 815 817 819 820 821 822 824 824 825 825 827 828
738 737 738 741 742 741 740 741 744 746 748 746 745 747 748 750 752 753 753 752 756 760 754 746 747 752 747 734 737 744 741 740 738 735 735 734 734 735 735 736 737 738 740 740 742 745 748 750 753 756 758 760 762 764 768 771 772 774 778 781 782 785 788 788 789 791 794 798 802 807 810 809 809 812 814 816 818 819 820 821 823 824 824 824 826 828
736 733 735 739 738 737 738 740 742 743 744 745 746 747 749 753 753 755 755 754 762 764 752 745 745 750 749 734 729 734 731 726 727 729 729 730 732 732 732 734 734 735 738 739 741 744 747 750 752 754 756 759 761 764 767 769 770 774 777 779 780 783 786 786 788 790 792 798 802 805 807 808 809 811 813 815 816 818 820 821 823 823 823 824 826 828
736 736 736 735 734 735 737 740 741 739 741 744 744 746 752 757 758 760 760 762 769 763 749 744 744 749 751 735 723 722 720 717 718 721 724 726 728 727 728 730 731 733 736 737 740 742 746 748 750 752 754 757 760 762 766 768 772 777 779 779 779 781 784 785 787 789 791 796 801 801 803 807 810 810 811 813 815 818 820 822 824 824 824 824 826 828
737 736 735 733 732 732 735 741 744 741 741 742 741 745 754 760 765 766 761 761 764 756 749 748 745 747 743 727 718 718 717 716 714 712 714 718 720 722 723 726 728 731 733 735 738 740 743 746 748 750 752 755 758 761 765 768 771 775 778 779 779 780 782 783 785 787 790 795 799 801 803 807 809 808 809 812 814 816 818 820 823 825 825 825 827 829
741 738 735 734 732 729 730 735 741 741 739 738 737 739 745 754 766 769 759 759 761 752 748 750 748 746 737 721 713 712 710 710 711 711 711 712 715 717 719 723 725 728 730 732 735 738 740 743 746 748 751 754 757 760 764 767 769 772 774 777 778 779 780 782 784 786 789 794 797 801 804 805 806 806 808 811 812 815 817 819 822 825 826 826 827 829
740 741 734 731 729 726 726 726 729 732 735 735 732 732 737 741 751 758 753 754 757 750 748 752 749 741 732 720 711 707 705 705 709 712 712 713 714 715 718 722 724 726 728 730 733 736 738 741 745 747 749 752 755 759 763 765 768 770 773 775 775 776 777 780 783 785 789 793 795 799 804 806 804 805 808 810 811 814 818 819 822 825 826 826 828 829
735 733 725 724 724 722 725 724 721 728 736 735 731 734 737 731 734 747 751 748 748 747 748 750 742 728 719 713 711 713 710 709 712 713 714 715 714 716 719 720 722 723 725 728 731 734 736 740 743 746 748 751 754 757 761 764 767 770 771 773 773 774 775 778 782 784 789 793 795 798 802 805 805 805 808 809 810 812 815 818 821 825 826 826 828 828
732 730 722 723 725 721 722 722 721 724 731 735 736 736 732 726 729 743 753 754 750 748 747 745 738 725 718 712 711 716 714 712 715 714 713 714 714 717 718 717 718 720 722 726 728 731 734 738 742 744 747 750 752 756 759 762 766 768 770 771 772 773 774 778 781 784 789 792 795 797 800 803 804 805 807 808 808 811 813 816 821 825 826 826 828 828
725 727 723 722 725 722 718 720 723 720 721 731 736 730 726 730 732 735 747 754 753 749 745 743 738 729 726 720 713 715 716 716 718 715 713 715 714 715 715 714 715 717 720 724 726 730 732 736 740 743 746 748 751 754 757 761 764 766 768 769 770 771 773 777 781 784 789 792 794 796 799 802 804 805 807 808 809 811 813 815 820 824 825 826 828 828
718 722 724 720 720 720 718 721 727 722 719 724 725 721 725 735 738 738 745 750 751 752 747 742 739 731 723 716 708 710 712 713 718 718 716 715 712 712 711 712 714 716 720 722 725 728 731 734 739 741 744 747 750 753 756 759 762 764 766 767 768 770 772 776 780 783 788 790 792 794 797 801 803 805 807 809 810 812 814 816 819 822 824 826 827 828
716 719 724 719 715 719 720 721 725 725 724 722 720 722 726 728 731 734 738 737 738 747 746 740 740 730 713 703 698 697 698 705 716 717 714 711 708 707 708 710 713 715 717 720 723 726 729 734 737 740 743 746 749 752 755 758 761 762 765 767 768 770 772 775 778 782 786 788 790 793 796 799 802 805 806 807 810 813 816 817 818 820 823 825 827 827
718 717 720 721 718 721 722 718 716 719 724 725 723 727 728 727 728 728 732 731 729 738 744 741 738 720 699 692 690 686 690 699 707 710 709 707 705 706 707 709 712 714 716 719 722 725 729 733 736 739 742 745 748 751 754 757 759 762 764 765 766 769 771 774 778 781 784 787 789 792 795 798 801 804 805 806 809 813 818 820 819 819 823 824 826 827
718 716 716 721 721 720 717 713 711 712 717 720 722 725 724 725 728 731 736 734 727 731 736 738 734 711 692 694 693 689 693 697 701 704 706 705 705 707 709 711 713 715 717 720 722 725 729 731 735 738 741 744 747 750 753 756 758 761 763 764 766 769 771 774 777 779 782 786 789 793 795 798 801 803 805 807 809 813 819 821 820 819 822 824 826 827
714 714 715 718 718 716 713 711 710 711 713 716 719 720 720 722 724 728 733 731 729 733 731 733 731 709 695 703 702 696 698 697 698 702 703 704 705 707 710 711 714 715 717 721 722 725 729 731 734 737 740 744 747 750 752 755 757 759 762 764 766 769 771 773 776 778 782 785 790 794 796 799 802 804 805 808 811 814 818 820 819 819 821 823 825 827
713 715 715 717 716 713 712 712 710 710 714 719 718 716 717 719 719 720 723 723 727 731 727 731 730 706 695 704 704 702 703 699 699 701 700 704 706 707 711 712 713 716 717 720 722 725 729 731 734 737 740 743 746 749 751 753 755 758 761 764 766 768 771 773 776 779 783 787 791 795 798 800 803 805 806 809 812 814 817 817 818 819 821 823 825 827
712 714 712 717 723 723 722 723 720 717 715 715 715 716 715 715 719 723 724 723 726 726 722 727 724 701 695 705 705 704 705 699 699 700 699 702 705 707 710 710 712 715 717 719 722 726 729 731 734 737 740 743 746 748 750 752 755 758 761 764 767 769 772 775 778 781 785 788 792 796 798 799 802 805 807 809 812 813 815 816 817 819 821 823 825 827
710 714 710 713 721 724 724 722 717 712 711 710 713 717 716 713 717 723 725 724 726 727 723 720 712 696 694 705 706 704 704 701 700 700 699 701 704 706 708 709 711 714 716 719 722 726 729 731 734 738 740 743 746 748 750 752 756 759 762 766 768 771 774 777 780 783 786 789 792 795 796 798 801 805 807 810 811 812 814 816 817 820 822 824 826 828
707 710 707 706 707 707 707 707 702 702 709 714 714 716 716 713 713 718 724 723 720 726 724 710 703 699 695 701 708 708 705 703 702 701 702 703 704 706 707 708 711 713 715 719 722 726 729 732 735 738 740 743 745 747 750 754 757 761 764 768 771 773 775 778 781 784 787 790 792 793 794 798 802 805 808 810 811 812 814 816 818 820 823 824 826 828
708 709 706 705 701 698 697 697 697 700 708 712 712 714 715 714 714 719 723 719 715 722 718 703 705 708 696 695 707 709 706 706 704 703 703 703 704 705 707 709 712 714 716 720 723 726 728 732 735 738 740 743 746 748 752 755 759 762 766 769 771 773 775 778 782 785 787 790 792 793 795 798 802 806 809 811 812 814 815 817 819 821 823 825 826 828
709 709 706 705 701 699 699 697 693 696 703 705 707 711 712 714 718 720 720 717 714 713 709 704 710 708 694 695 707 708 706 706 704 702 702 702 702 704 707 710 712 714 717 721 723 725 728 732 735 737 740 743 746 749 752 756 760 763 766 768 770 771 773 777 782 786 789 791 793 796 798 799 802 807 810 811 813 815 817 819 820 822 823 825 827 829
709 706 704 705 702 700 704 701 693 694 700 703 703 705 709 712 716 715 714 717 716 711 711 716 717 706 696 700 706 706 705 704 702 702 701 701 703 705 707 710 712 714 717 720 723 725 728 731 734 737 740 742 746 749 752 756 760 763 765 768 770 771 774 778 783 787 790 792 794 797 799 801 804 807 809 811 813 816 818 820 821 823 825 826 828 830
707 705 704 704 702 701 703 701 697 695 698 702 702 703 707 712 714 714 715 719 720 714 714 719 715 703 700 704 706 707 706 703 702 703 702 702 704 706 707 709 712 715 717 720 723 726 728 731 734 737 740 743 746 749 753 756 760 762 765 767 769 772 776 781 783 787 791 793 794 796 799 802 805 807 809 812 814 816 819 821 822 824 826 828 829 831
704 704 703 702 699 700 701 701 700 697 696 703 706 705 709 712 712 713 716 719 716 711 712 715 707 699 701 706 708 707 706 704 704 704 703 704 705 707 709 710 712 716 718 720 724 726 729 732 734 737 740 743 746 750 753 757 760 762 764 767 770 773 777 781 784 786 790 792 794 796 798 801 804 806 809 812 814 817 819 821 823 825 827 829 831 833
704 701 701 702 700 701 704 702 699 700 705 709 708 705 707 708 709 711 713 714 710 707 708 707 699 698 704 708 707 707 706 704 703 702 703 705 706 707 709 711 713 717 719 722 724 727 729 732 734 737 740 744 747 750 753 756 760 763 765 768 772 774 776 779 782 785 788 791 795 797 800 802 804 806 809 812 814 817 820 822 824 826 828 829 831 834
706 702 702 704 701 703 706 700 698 707 712 710 706 704 705 705 704 705 707 707 707 707 706 703 701 705 707 705 705 706 705 702 699 699 700 702 704 707 709 711 714 716 719 722 724 726 728 731 734 737 740 744 747 750 753 757 760 763 767 770 773 775 777 779 782 786 790 793 796 798 801 803 805 807 809 812 815 818 821 823 824 827 828 830 832 835
706 703 705 707 703 704 703 698 706 716 713 706 709 711 709 707 703 700 701 705 708 710 710 708 709 708 705 704 705 704 703 701 699 698 699 699 701 704 707 710 712 715 718 720 722 724 726 729 732 736 740 743 746 750 754 757 760 764 768 771 773 776 779 781 784 788 791 793 796 798 800 802 804 807 810 813 815 819 821 823 825 827 829 831 834 836
704 703 705 705 704 704 699 699 710 716 709 705 710 712 711 710 705 700 701 706 709 710 709 708 709 708 705 705 705 703 703 703 702 702 700 699 700 702 705 708 710 712 714 716 718 722 725 729 733 737 741 744 747 750 754 757 761 764 769 773 774 777 779 782 785 788 791 793 796 798 800 801 804 807 810 813 816 819 821 823 825 827 830 833 835 838
704 704 702 700 702 703 701 703 709 710 709 709 708 708 709 707 704 701 700 703 706 707 708 708 709 708 706 705 705 704 704 706 707 706 702 699 701 702 703 705 707 710 712 714 717 722 726 731 735 739 742 745 748 751 754 758 761 764 768 773 776 777 779 782 785 789 792 794 796 797 800 802 804 807 810 813 817 819 821 823 826 828 831 834 837 840
704 704 700 698 702 703 699 705 712 713 715 712 705 705 707 706 708 707 702 701 704 706 708 709 707 707 707 706 706 705 706 710 711 706 701 701 702 703 704 705 706 709 713 716 719 722 726 731 735 739 743 746 749 751 754 757 761 764 768 772 776 779 781 784 787 789 792 794 796 798 801 803 805 807 810 814 817 819 822 824 826 829 832 835 838 841
706 707 703 697 700 699 695 701 713 716 715 710 704 704 707 708 710 707 701 701 703 705 709 709 705 706 707 707 706 706 708 709 706 699 698 700 701 702 705 707 708 710 713 717 720 723 726 731 735 739 743 746 750 752 754 756 760 763 768 773 777 780 782 784 787 789 791 793 796 799 802 804 807 809 811 814 817 820 822 824 827 830 833 836 839 842
701 702 699 695 697 700 698 704 714 713 709 708 705 704 707 710 708 704 705 705 702 703 709 709 704 704 706 706 707 708 706 703 700 696 695 698 700 702 705 707 709 711 714 718 721 723 727 731 735 740 744 746 749 753 755 758 760 763 768 773 777 780 781 782 785 789 792 794 797 800 802 805 808 810 812 814 817 820 823 825 828 830 833 837 840 842
701 701 701 697 698 700 701 706 713 711 707 707 707 705 708 709 704 703 707 706 701 701 706 707 704 702 703 705 707 707 703 701 702 700 697 698 701 703 704 707 710 713 716 719 722 724 728 732 736 740 744 747 750 753 756 759 762 764 767 771 774 777 780 783 786 789 792 794 798 801 803 806 809 811 813 815 818 821 824 826 828 831 834 837 840 843
707 705 705 705 707 708 706 706 711 712 709 709 709 707 706 705 703 706 707 704 703 703 704 705 705 701 701 704 705 705 705 705 705 703 700 700 703 704 706 708 711 714 717 720 722 725 728 733 737 741 744 748 750 753 756 759 762 765 768 771 773 776 779 783 786 789 792 795 798 801 803 806 809 812 815 816 818 821 824 827 829 831 834 837 840 843
716 709 707 712 717 715 708 707 713 715 711 710 708 706 705 705 706 709 707 703 704 705 704 705 704 700 700 704 705 707 709 708 706 704 703 702 704 706 708 709 712 715 718 721 724 727 729 734 739 742 745 748 751 754 756 759 762 765 769 771 774 776 779 783 786 789 792 795 798 801 804 807 810 812 815 817 818 820 823 826 829 832 835 837 840 843
720 715 712 716 718 713 708 711 716 715 712 712 710 707 708 710 710 711 709 705 704 705 705 704 703 701 700 702 705 708 710 710 708 707 707 707 707 709 710 712 714 717 720 723 726 728 731 735 739 743 745 748 751 754 756 758 761 765 768 770 773 776 779 783 786 789 792 795 798 801 804 807 810 813 815 817 819 820 823 826 829 832 834 837 840 842
723 723 720 719 721 719 715 714 716 714 713 715 713 711 712 712 711 712 711 708 706 706 706 704 702 702 701 701 704 708 711 712 712 711 711 712 712 713 714 715 717 719 722 725 728 730 733 735 739 743 746 748 750 753 756 757 760 765 768 770 774 777 779 782 786 789 792 795 798 801 804 807 810 813 815 817 818 820 822 825 828 831 834 837 839 842
726 728 724 720 720 720 717 715 715 715 714 713 712 712 712 712 713 713 711 709 708 708 707 704 702 702 702 702 704 709 712 714 713 713 714 715 715 716 717 718 720 722 725 728 730 733 735 737 740 743 746 749 751 753 756 758 759 762 767 770 774 777 780 782 786 789 792 795 798 800 803 806 810 813 815 817 819 820 822 825 827 830 833 836 839 841
724 725 724 720 718 719 718 717 716 715 714 713 711 710 709 709 711 711 710 709 709 708 707 705 703 703 703 702 704 708 712 714 714 714 715 716 717 718 718 720 722 724 726 729 732 734 737 739 742 744 746 749 752 754 756 758 760 762 765 769 773 777 780 782 785 788 791 795 797 800 803 806 809 812 814 817 818 820 823 825 828 830 832 835 838 840
724 722 722 724 723 721 720 720 719 717 716 716 714 712 712 711 709 708 708 708 708 707 707 705 703 703 703 703 704 708 712 714 714 714 716 717 718 719 719 720 723 725 727 730 732 735 737 740 743 745 747 749 752 754 756 759 761 763 765 768 772 775 778 782 785 787 791 794 797 800 803 805 808 811 814 816 818 820 823 825 828 830 832 834 836 838
728 724 725 727 724 722 722 722 720 718 716 714 714 715 716 715 713 709 707 707 707 706 706 705 704 704 704 705 706 708 711 713 713 713 715 716 717 719 720 722 724 726 728 730 732 734 737 739 742 745 748 750 752 755 757 759 761 763 765 767 771 774 777 781 784 787 790 793 796 799 802 805 808 810 813 815 818 820 823 825 828 830 832 834 836 838
729 727 729 727 722 723 725 723 722 722 720 717 717 717 717 718 716 712 709 709 708 708 708 707 706 706 706 707 707 708 711 713 713 713 714 715 717 719 721 723 726 728 730 732 734 736 737 739 742 744 747 751 753 755 757 759 761 763 765 767 770 772 775 779 783 787 790 793 796 799 802 805 807 810 812 815 818 820 823 826 828 831 833 835 837 839
729 728 728 724 722 724 725 724 725 726 722 720 720 720 719 719 717 714 713 713 712 711 711 710 709 709 710 710 709 710 711 713 714 715 716 717 718 719 720 723 726 729 732 734 736 738 740 741 743 745 748 751 754 756 757 759 761 763 766 768 770 772 775 778 782 786 789 792 795 798 801 804 806 809 812 815 817 820 823 826 829 832 833 836 838 840